Time,TemperatureF,DewpointF,PressureIn,WindDirection,WindDirectionDegrees,WindSpeedMPH,WindSpeedGustMPH,Humidity,HourlyPrecipIn,Conditions,Clouds,dailyrainin,SoftwareType,DateUTC
2013-06-14 00:02:00,68.0,45.0,-100.00,NNE,15,12.0,19.0,43,-99.99,,,-99.99,,2013-06-14 06:02:00,
2013-06-14 00:12:00,68.0,45.0,-100.00,NNE,20,12.0,20.0,43,-99.99,,,-99.99,,2013-06-14 06:12:00,
2013-06-14 00:22:00,68.0,45.0,-100.00,NNE,20,11.0,21.0,43,-99.99,,,-99.99,,2013-06-14 06:22:00,
2013-06-14 00:33:00,68.0,45.0,-100.00,NNE,20,11.0,21.0,43,-99.99,,,-99.99,,2013-06-14 06:33:00,
2013-06-14 00:43:00,66.0,44.0,-100.00,NE,45,10.0,15.0,45,-99.99,,,-99.99,,2013-06-14 06:43:00,
2013-06-14 00:52:00,67.0,44.0,-100.00,NE,55,8.0,11.0,44,-99.99,,,-99.99,,2013-06-14 06:52:00,
2013-06-14 01:02:00,68.0,44.0,-100.00,ENE,60,11.0,15.0,43,-99.99,,,-99.99,,2013-06-14 07:02:00,
2013-06-14 01:12:00,67.0,44.0,-100.00,ENE,60,10.0,16.0,43,-99.99,,,-99.99,,2013-06-14 07:12:00,
2013-06-14 01:22:00,67.0,44.0,-100.00,NE,35,10.0,15.0,44,-99.99,,,-99.99,,2013-06-14 07:22:00,
2013-06-14 01:33:00,66.0,44.0,-100.00,NE,45,7.0,13.0,45,-99.99,,,-99.99,,2013-06-14 07:33:00,
2013-06-14 01:43:00,65.0,44.0,-100.00,NNE,30,3.0,9.0,46,-99.99,,,-99.99,,2013-06-14 07:43:00,
2013-06-14 01:53:00,64.0,44.0,-100.00,NNE,20,3.0,4.0,47,-99.99,,,-99.99,,2013-06-14 07:53:00,
2013-06-14 02:02:00,64.0,46.0,-100.00,NNE,25,4.0,6.0,51,-99.99,,,-99.99,,2013-06-14 08:02:00,
2013-06-14 02:12:00,63.0,47.0,-100.00,NE,40,5.0,7.0,56,-99.99,,,-99.99,,2013-06-14 08:12:00,
2013-06-14 02:22:00,63.0,47.0,-100.00,NNE,25,6.0,9.0,55,-99.99,,,-99.99,,2013-06-14 08:22:00,
2013-06-14 02:33:00,63.0,46.0,-100.00,NE,35,6.0,8.0,54,-99.99,,,-99.99,,2013-06-14 08:33:00,
2013-06-14 02:43:00,62.0,46.0,-100.00,NE,55,6.0,9.0,55,-99.99,,,-99.99,,2013-06-14 08:43:00,
2013-06-14 02:53:00,63.0,46.0,-100.00,ENE,70,5.0,7.0,52,-99.99,,,-99.99,,2013-06-14 08:53:00,
2013-06-14 03:02:00,63.0,45.0,-100.00,NE,45,6.0,8.0,52,-99.99,,,-99.99,,2013-06-14 09:02:00,
2013-06-14 03:12:00,63.0,45.0,-100.00,ENE,60,6.0,7.0,51,-99.99,,,-99.99,,2013-06-14 09:12:00,
2013-06-14 03:22:00,63.0,45.0,-100.00,NE,55,7.0,8.0,52,-99.99,,,-99.99,,2013-06-14 09:22:00,
2013-06-14 03:33:00,63.0,45.0,-100.00,NE,55,7.0,10.0,51,-99.99,,,-99.99,,2013-06-14 09:33:00,
2013-06-14 03:43:00,63.0,45.0,-100.00,NNE,30,4.0,8.0,52,-99.99,,,-99.99,,2013-06-14 09:43:00,
2013-06-14 03:52:00,61.0,45.0,-100.00,NW,315,3.0,6.0,53,-99.99,,,-99.99,,2013-06-14 09:52:00,
2013-06-14 04:01:00,60.0,48.0,-100.00,NW,315,4.0,5.0,64,-99.99,,,-99.99,,2013-06-14 10:01:00,
2013-06-14 04:11:00,60.0,48.0,-100.00,NW,325,6.0,7.0,65,-99.99,,,-99.99,,2013-06-14 10:11:00,
2013-06-14 04:22:00,60.0,48.0,-100.00,North,0,3.0,7.0,66,-99.99,,,-99.99,,2013-06-14 10:22:00,
2013-06-14 04:34:00,60.0,49.0,-100.00,ENE,70,4.0,6.0,66,-99.99,,,-99.99,,2013-06-14 10:34:00,
2013-06-14 04:43:00,59.0,49.0,-100.00,ESE,105,11.0,12.0,68,-99.99,,,-99.99,,2013-06-14 10:43:00,
2013-06-14 04:52:00,63.0,47.0,-100.00,SE,125,12.0,15.0,55,-99.99,,,-99.99,,2013-06-14 10:52:00,
2013-06-14 05:02:00,63.0,46.0,-100.00,SE,130,11.0,15.0,53,-99.99,,,-99.99,,2013-06-14 11:02:00,
2013-06-14 05:11:00,64.0,45.0,-100.00,SE,140,10.0,13.0,49,-99.99,,,-99.99,,2013-06-14 11:11:00,
2013-06-14 05:22:00,63.0,45.0,-100.00,SE,135,10.0,11.0,51,-99.99,,,-99.99,,2013-06-14 11:22:00,
2013-06-14 05:32:00,63.0,45.0,-100.00,SSE,160,9.0,11.0,51,-99.99,,,-99.99,,2013-06-14 11:32:00,
2013-06-14 05:43:00,63.0,45.0,-100.00,SSE,160,9.0,11.0,51,-99.99,,,-99.99,,2013-06-14 11:43:00,
2013-06-14 05:52:00,63.0,46.0,-100.00,South,185,10.0,12.0,52,-99.99,,,-99.99,,2013-06-14 11:52:00,
2013-06-14 06:01:00,63.0,46.0,-100.00,South,185,9.0,14.0,54,-99.99,,,-99.99,,2013-06-14 12:01:00,
2013-06-14 06:11:00,62.0,46.0,-100.00,South,185,8.0,11.0,55,-99.99,,,-99.99,,2013-06-14 12:11:00,
2013-06-14 06:22:00,62.0,47.0,-100.00,South,185,9.0,11.0,57,-99.99,,,-99.99,,2013-06-14 12:22:00,
2013-06-14 06:32:00,62.0,48.0,-100.00,SSW,200,9.0,11.0,59,-99.99,,,-99.99,,2013-06-14 12:32:00,
2013-06-14 06:43:00,62.0,48.0,-100.00,SSW,200,9.0,13.0,59,-99.99,,,-99.99,,2013-06-14 12:43:00,
2013-06-14 06:52:00,63.0,49.0,-100.00,SSW,195,8.0,12.0,60,-99.99,,,-99.99,,2013-06-14 12:52:00,
2013-06-14 07:02:00,63.0,49.0,-100.00,SSW,200,11.0,14.0,60,-99.99,,,-99.99,,2013-06-14 13:02:00,
2013-06-14 07:11:00,63.0,50.0,-100.00,SSW,200,12.0,15.0,61,-99.99,,,-99.99,,2013-06-14 13:11:00,
2013-06-14 07:22:00,63.0,50.0,-100.00,SSW,200,12.0,16.0,60,-99.99,,,-99.99,,2013-06-14 13:22:00,
2013-06-14 07:33:00,63.0,49.0,-100.00,SSW,205,12.0,17.0,61,-99.99,,,-99.99,,2013-06-14 13:33:00,
2013-06-14 07:43:00,63.0,50.0,-100.00,SSW,205,10.0,15.0,61,-99.99,,,-99.99,,2013-06-14 13:43:00,
2013-06-14 07:52:00,63.0,50.0,-100.00,SSW,200,11.0,16.0,62,-99.99,,,-99.99,,2013-06-14 13:52:00,
2013-06-14 08:02:00,63.0,50.0,-100.00,SSW,200,8.0,15.0,62,-99.99,,,-99.99,,2013-06-14 14:02:00,
2013-06-14 08:11:00,64.0,50.0,-100.00,South,190,11.0,13.0,61,-99.99,,,-99.99,,2013-06-14 14:11:00,
2013-06-14 08:22:00,65.0,50.0,-100.00,SSW,210,9.0,13.0,58,-99.99,,,-99.99,,2013-06-14 14:22:00,
2013-06-14 08:34:00,66.0,49.0,-100.00,SW,225,9.0,12.0,54,-99.99,,,-99.99,,2013-06-14 14:34:00,
2013-06-14 08:43:00,67.0,49.0,-100.00,SSW,210,9.0,11.0,51,-99.99,,,-99.99,,2013-06-14 14:43:00,
2013-06-14 08:52:00,68.0,49.0,-100.00,SW,215,7.0,9.0,49,-99.99,,,-99.99,,2013-06-14 14:52:00,
2013-06-14 09:01:00,69.0,49.0,-100.00,SW,225,8.0,10.0,48,-99.99,,,-99.99,,2013-06-14 15:01:00,
2013-06-14 09:11:00,70.0,49.0,-100.00,SW,235,6.0,10.0,47,-99.99,,,-99.99,,2013-06-14 15:11:00,
2013-06-14 09:23:00,72.0,48.0,-100.00,WSW,250,6.0,8.0,42,-99.99,,,-99.99,,2013-06-14 15:23:00,
2013-06-14 09:33:00,74.0,46.0,-100.00,WSW,250,7.0,9.0,37,-99.99,,,-99.99,,2013-06-14 15:33:00,
2013-06-14 09:43:00,75.0,45.0,-100.00,WSW,240,9.0,14.0,33,-99.99,,,-99.99,,2013-06-14 15:43:00,
2013-06-14 09:52:00,77.0,40.0,-100.00,WSW,240,12.0,17.0,26,-99.99,,,-99.99,,2013-06-14 15:52:00,
2013-06-14 10:01:00,79.0,39.0,-100.00,West,275,12.0,17.0,23,-99.99,,,-99.99,,2013-06-14 16:01:00,
2013-06-14 10:11:00,78.0,38.0,-100.00,West,265,9.0,17.0,23,-99.99,,,-99.99,,2013-06-14 16:11:00,
2013-06-14 10:22:00,79.0,38.0,-100.00,West,280,9.0,13.0,22,-99.99,,,-99.99,,2013-06-14 16:22:00,
2013-06-14 10:32:00,81.0,38.0,-100.00,West,280,10.0,15.0,21,-99.99,,,-99.99,,2013-06-14 16:32:00,
2013-06-14 10:43:00,83.0,39.0,-100.00,West,270,9.0,14.0,21,-99.99,,,-99.99,,2013-06-14 16:43:00,
2013-06-14 10:52:00,83.0,38.0,-100.00,WSW,240,6.0,14.0,20,-99.99,,,-99.99,,2013-06-14 16:52:00,
2013-06-14 11:02:00,82.0,38.0,-100.00,NW,310,7.0,14.0,20,-99.99,,,-99.99,,2013-06-14 17:02:00,
2013-06-14 11:11:00,83.0,38.0,-100.00,North,5,9.0,12.0,20,-99.99,,,-99.99,,2013-06-14 17:11:00,
2013-06-14 11:22:00,84.0,38.0,-100.00,NNE,25,2.0,12.0,19,-99.99,,,-99.99,,2013-06-14 17:22:00,
2013-06-14 11:34:00,84.0,39.0,-100.00,NNW,335,9.0,12.0,19,-99.99,,,-99.99,,2013-06-14 17:34:00,
2013-06-14 11:43:00,85.0,39.0,-100.00,NNE,30,4.0,9.0,19,-99.99,,,-99.99,,2013-06-14 17:43:00,
2013-06-14 11:53:00,85.0,39.0,-100.00,NNE,15,8.0,12.0,19,-99.99,,,-99.99,,2013-06-14 17:53:00,
2013-06-14 12:02:00,85.0,42.0,-100.00,NNE,15,13.0,22.0,21,-99.99,,,-99.99,,2013-06-14 18:02:00,
2013-06-14 12:11:00,84.0,41.0,-100.00,NNE,30,9.0,18.0,22,-99.99,,,-99.99,,2013-06-14 18:11:00,
2013-06-14 12:22:00,85.0,41.0,-100.00,NNE,25,9.0,17.0,21,-99.99,,,-99.99,,2013-06-14 18:22:00,
2013-06-14 12:32:00,84.0,41.0,-100.00,North,0,14.0,19.0,21,-99.99,,,-99.99,,2013-06-14 18:32:00,
2013-06-14 12:42:00,83.0,42.0,-100.00,North,10,17.0,24.0,23,-99.99,,,-99.99,,2013-06-14 18:42:00,
2013-06-14 12:52:00,82.0,42.0,-100.00,NNE,20,18.0,24.0,23,-99.99,,,-99.99,,2013-06-14 18:52:00,
2013-06-14 13:01:00,82.0,41.0,-100.00,North,10,16.0,23.0,23,-99.99,,,-99.99,,2013-06-14 19:01:00,
2013-06-14 13:11:00,82.0,41.0,-100.00,North,10,16.0,23.0,23,-99.99,,,-99.99,,2013-06-14 19:11:00,
2013-06-14 13:21:00,82.0,41.0,-100.00,NNE,30,19.0,22.0,23,-99.99,,,-99.99,,2013-06-14 19:21:00,
2013-06-14 13:32:00,83.0,42.0,-100.00,NNE,20,16.0,24.0,23,-99.99,,,-99.99,,2013-06-14 19:32:00,
2013-06-14 13:43:00,83.0,42.0,-100.00,NE,45,17.0,22.0,23,-99.99,,,-99.99,,2013-06-14 19:43:00,
2013-06-14 13:53:00,83.0,42.0,-100.00,NE,40,17.0,22.0,23,-99.99,,,-99.99,,2013-06-14 19:53:00,
2013-06-14 14:01:00,84.0,42.0,-100.00,NNE,30,17.0,24.0,22,-99.99,,,-99.99,,2013-06-14 20:01:00,
2013-06-14 14:11:00,84.0,42.0,-100.00,NNE,15,19.0,25.0,22,-99.99,,,-99.99,,2013-06-14 20:11:00,
2013-06-14 14:22:00,86.0,43.0,-100.00,North,10,16.0,24.0,21,-99.99,,,-99.99,,2013-06-14 20:22:00,
2013-06-14 14:33:00,86.0,42.0,-100.00,North,0,14.0,24.0,21,-99.99,,,-99.99,,2013-06-14 20:33:00,
2013-06-14 14:43:00,86.0,43.0,-100.00,North,5,18.0,27.0,21,-99.99,,,-99.99,,2013-06-14 20:43:00,
2013-06-14 14:53:00,86.0,43.0,-100.00,North,5,21.0,27.0,22,-99.99,,,-99.99,,2013-06-14 20:53:00,
2013-06-14 15:02:00,87.0,44.0,-100.00,NNE,15,16.0,25.0,22,-99.99,,,-99.99,,2013-06-14 21:02:00,
2013-06-14 15:11:00,87.0,44.0,-100.00,NNE,15,16.0,25.0,22,-99.99,,,-99.99,,2013-06-14 21:11:00,
2013-06-14 15:22:00,85.0,42.0,-100.00,North,0,19.0,25.0,22,-99.99,,,-99.99,,2013-06-14 21:22:00,
2013-06-14 15:34:00,86.0,43.0,-100.00,North,10,16.0,24.0,21,-99.99,,,-99.99,,2013-06-14 21:34:00,
2013-06-14 15:42:00,87.0,44.0,-100.00,North,5,15.0,21.0,22,-99.99,,,-99.99,,2013-06-14 21:42:00,
2013-06-14 15:52:00,86.0,43.0,-100.00,NNW,345,14.0,21.0,22,-99.99,,,-99.99,,2013-06-14 21:52:00,
2013-06-14 16:01:00,87.0,43.0,-100.00,North,5,16.0,24.0,21,-99.99,,,-99.99,,2013-06-14 22:01:00,
2013-06-14 16:11:00,86.0,44.0,-100.00,NNW,345,17.0,24.0,22,-99.99,,,-99.99,,2013-06-14 22:11:00,
2013-06-14 16:22:00,84.0,43.0,-100.00,NNW,345,15.0,22.0,23,-99.99,,,-99.99,,2013-06-14 22:22:00,
2013-06-14 16:33:00,84.0,43.0,-100.00,NNW,340,15.0,21.0,23,-99.99,,,-99.99,,2013-06-14 22:33:00,
2013-06-14 16:43:00,85.0,43.0,-100.00,North,0,16.0,22.0,23,-99.99,,,-99.99,,2013-06-14 22:43:00,
2013-06-14 16:52:00,84.0,42.0,-100.00,North,0,14.0,21.0,23,-99.99,,,-99.99,,2013-06-14 22:52:00,
2013-06-14 17:01:00,83.0,43.0,-100.00,North,10,14.0,21.0,23,-99.99,,,-99.99,,2013-06-14 23:01:00,
2013-06-14 17:11:00,84.0,43.0,-100.00,North,10,14.0,21.0,23,-99.99,,,-99.99,,2013-06-14 23:11:00,
2013-06-14 17:22:00,84.0,43.0,-100.00,NNE,20,11.0,20.0,23,-99.99,,,-99.99,,2013-06-14 23:22:00,
2013-06-14 17:33:00,83.0,44.0,-100.00,NNW,340,16.0,21.0,24,-99.99,,,-99.99,,2013-06-14 23:33:00,
2013-06-14 17:43:00,83.0,44.0,-100.00,North,0,17.0,22.0,25,-99.99,,,-99.99,,2013-06-14 23:43:00,
2013-06-14 17:52:00,83.0,44.0,-100.00,NNW,345,17.0,22.0,25,-99.99,,,-99.99,,2013-06-14 23:52:00,
2013-06-14 18:01:00,85.0,45.0,-100.00,North,0,12.0,19.0,24,-99.99,,,-99.99,,2013-06-15 00:01:00,
2013-06-14 18:11:00,85.0,45.0,-100.00,North,0,12.0,19.0,24,-99.99,,,-99.99,,2013-06-15 00:11:00,
2013-06-14 18:22:00,84.0,44.0,-100.00,North,0,12.0,19.0,24,-99.99,,,-99.99,,2013-06-15 00:22:00,
2013-06-14 18:34:00,83.0,44.0,-100.00,North,0,12.0,19.0,24,-99.99,,,-99.99,,2013-06-15 00:34:00,
2013-06-14 18:43:00,83.0,43.0,-100.00,North,0,13.0,17.0,24,-99.99,,,-99.99,,2013-06-15 00:43:00,
2013-06-14 18:52:00,84.0,43.0,-100.00,North,10,13.0,17.0,23,-99.99,,,-99.99,,2013-06-15 00:52:00,
2013-06-14 19:01:00,84.0,43.0,-100.00,North,0,15.0,20.0,23,-99.99,,,-99.99,,2013-06-15 01:01:00,
2013-06-14 19:11:00,83.0,43.0,-100.00,North,0,15.0,22.0,24,-99.99,,,-99.99,,2013-06-15 01:11:00,
2013-06-14 19:22:00,83.0,42.0,-100.00,NNE,15,17.0,21.0,23,-99.99,,,-99.99,,2013-06-15 01:22:00,
2013-06-14 19:33:00,83.0,42.0,-100.00,NNE,25,12.0,21.0,23,-99.99,,,-99.99,,2013-06-15 01:33:00,
2013-06-14 19:43:00,82.0,42.0,-100.00,NNE,30,18.0,25.0,24,-99.99,,,-99.99,,2013-06-15 01:43:00,
2013-06-14 19:54:00,82.0,42.0,-100.00,NNE,20,19.0,25.0,24,-99.99,,,-99.99,,2013-06-15 01:54:00,
2013-06-14 20:02:00,77.0,39.0,-100.00,East,80,19.0,32.0,26,-99.99,,,-99.99,,2013-06-15 02:02:00,
2013-06-14 20:11:00,75.0,39.0,-100.00,ENE,60,18.0,32.0,27,-99.99,,,-99.99,,2013-06-15 02:11:00,
2013-06-14 20:22:00,74.0,40.0,-100.00,ENE,65,14.0,24.0,28,-99.99,,,-99.99,,2013-06-15 02:22:00,
2013-06-14 20:33:00,73.0,40.0,-100.00,NE,45,11.0,17.0,29,-99.99,,,-99.99,,2013-06-15 02:33:00,
2013-06-14 20:43:00,73.0,39.0,-100.00,NE,40,7.0,14.0,29,-99.99,,,-99.99,,2013-06-15 02:43:00,
2013-06-14 20:53:00,72.0,39.0,-100.00,NE,50,7.0,12.0,30,-99.99,,,-99.99,,2013-06-15 02:53:00,
2013-06-14 21:01:00,71.0,40.0,-100.00,NNE,20,6.0,9.0,32,-99.99,,,-99.99,,2013-06-15 03:01:00,
2013-06-14 21:11:00,69.0,40.0,-100.00,North,5,5.0,7.0,34,-99.99,,,-99.99,,2013-06-15 03:11:00,
2013-06-14 21:23:00,69.0,41.0,-100.00,NE,35,3.0,6.0,35,-99.99,,,-99.99,,2013-06-15 03:23:00,
2013-06-14 21:32:00,69.0,41.0,-100.00,ENE,60,6.0,12.0,36,-99.99,,,-99.99,,2013-06-15 03:32:00,
2013-06-14 21:43:00,69.0,41.0,-100.00,ENE,60,6.0,13.0,35,-99.99,,,-99.99,,2013-06-15 03:43:00,
2013-06-14 21:52:00,69.0,41.0,-100.00,NE,40,7.0,12.0,35,-99.99,,,-99.99,,2013-06-15 03:52:00,
2013-06-14 22:01:00,69.0,41.0,-100.00,North,10,3.0,7.0,36,-99.99,,,-99.99,,2013-06-15 04:01:00,
2013-06-14 22:11:00,68.0,41.0,-100.00,NNE,20,3.0,6.0,37,-99.99,,,-99.99,,2013-06-15 04:11:00,
2013-06-14 22:22:00,67.0,41.0,-100.00,NNW,340,2.0,4.0,39,-99.99,,,-99.99,,2013-06-15 04:22:00,
2013-06-14 22:34:00,66.0,42.0,-100.00,NW,325,2.0,3.0,41,-99.99,,,-99.99,,2013-06-15 04:34:00,
2013-06-14 22:43:00,65.0,42.0,-100.00,NW,315,2.0,4.0,42,-99.99,,,-99.99,,2013-06-15 04:43:00,
2013-06-14 22:53:00,64.0,41.0,-100.00,West,265,6.0,7.0,42,-99.99,,,-99.99,,2013-06-15 04:53:00,
2013-06-14 23:02:00,64.0,42.0,-100.00,West,260,8.0,10.0,43,-99.99,,,-99.99,,2013-06-15 05:02:00,
2013-06-14 23:12:00,64.0,42.0,-100.00,West,260,7.0,9.0,44,-99.99,,,-99.99,,2013-06-15 05:12:00,
2013-06-14 23:22:00,64.0,42.0,-100.00,NW,305,6.0,10.0,44,-99.99,,,-99.99,,2013-06-15 05:22:00,
2013-06-14 23:34:00,65.0,42.0,-100.00,WNW,285,7.0,12.0,43,-99.99,,,-99.99,,2013-06-15 05:34:00,
2013-06-14 23:42:00,65.0,42.0,-100.00,WNW,290,9.0,12.0,42,-99.99,,,-99.99,,2013-06-15 05:42:00,
2013-06-14 23:52:00,65.0,42.0,-100.00,WNW,295,7.0,12.0,42,-99.99,,,-99.99,,2013-06-15 05:52:00,